Regional Weather Roundup
Issued by NWS Kansas City/Pleasant Hill, MO

Home | Current Version | Previous Version | Graphics & Text | Print | Product List | Glossary Off
Versions: 1 2 3 4 5 6 7 8 9 10 11 12 13 14 15 16 17 18 19 20 21 22 23 24 25 26 27 28 29 30 31 32 33 34 35 36 37 38 39 40 41 42 43 44 45 46 47 48 49 50

000
ASUS43 KEAX 221910
RWREAX

WEATHER ROUNDUP FOR EASTERN KANSAS AND NORTHWEST MISSOURI
NATIONAL WEATHER SERVICE KANSAS CITY/PLEASANT HILL MO
200 PM CDT TUE APR 22 2014

KSZ040-057-103>105-MOZ028-029-037-043-222000-
...KANSAS CITY METROPOLITAN AREA...

CITY           SKY/WX    TMP DP  RH WIND       PRES   REMARKS
K.C. INTL      MOSUNNY   65  31  28 E7G16     30.10F
K.C. DOWNTOWN  SUNNY     67  32  27 VRB6      30.09F
LEES SUMMIT    SUNNY     64  32  30 NE7       30.10F
OLATHE - IXD   SUNNY     65  29  25 VRB3      30.10F
OLATHE - OJC   SUNNY     66  30  26 NE9       30.09F
LAWRENCE       SUNNY     68  31  25 VRB7      30.09F

$$

MOZ001>008-011>017-020>025-030>033-038>040-044>046-053-054-222000-
...NORTHERN AND CENTRAL MISSOURI...

CITY           SKY/WX    TMP DP  RH WIND       PRES   REMARKS
ST. JOSEPH     SUNNY     64  32  30 VRB3      30.09F
MOSBY          FAIR      63  34  34 N3        30.09F
WARRENSBURG    SUNNY    N/A N/A N/A NW6       30.10F
WHITEMAN AFB   SUNNY     63  28  26 VRB7      30.09F
CLINTON        SUNNY     64  41  42 N9        30.09F
SEDALIA        SUNNY     65  36  34 NW8       30.09F
WARSAW         NOT AVBL
MARSHALL         N/A     66  36  32 N8        30.10F
CHILLICOTHE      N/A     64  34  32 NE8       30.10F
MOBERLY        SUNNY     63  34  34 N7        30.09F
KIRKSVILLE     SUNNY     63  33  32 N14G23    30.09F

$$

MOZ041-047>049-056>058-063>065-088>090-097-222000-
...EASTERN AND SOUTHERN MISSOURI...

CITY           SKY/WX    TMP DP  RH WIND       PRES   REMARKS
ST. LOUIS INTL SUNNY     67  39  35 NW13G20   30.02F
SPIRIT OF STL  SUNNY     65  38  36 N10       30.03F
COLUMBIA       SUNNY     64  40  41 N12       30.07F
JEFFERSON CITY SUNNY     65  31  28 N10       30.06S
MEXICO         SUNNY     61  36  39 NW12      30.06F
HANNIBAL       SUNNY     64  27  24 N12G20    30.06F
ROLLA          SUNNY     64  38  38 NW9       30.03F
LEBANON        SUNNY     68  34  28 NW6       30.06F
OSAGE BEACH    SUNNY     66  36  32 NW5       30.07F
SPRINGFIELD    SUNNY     68  36  30 N13       30.06F
BRANSON        MOSUNNY   68  34  28 N12G17    30.05F
NEVADA         SUNNY     66  39  37 N13G18    30.10F
JOPLIN         SUNNY     67  37  33 NE8       30.08F
WEST PLAINS    SUNNY     71  35  26 N10G17    30.02F
MALDEN         SUNNY     73  43  33 N13       29.97S

$$

IAZ060-094-KSZ022-034>040-054-083-096-NEZ052-066-093-222000-
...KANSAS...SOUTHEAST NEBRASKA AND IOWA...

CITY           SKY/WX    TMP DP  RH WIND       PRES   REMARKS
TOPEKA         SUNNY     68  32  26 CALM      30.10F
MANHATTAN      SUNNY     69  31  24 E5        30.09F
EMPORIA        SUNNY     67  32  27 E7        30.09F
CHANUTE        SUNNY     69  34  27 NE8       30.09F
WICHITA        MOSUNNY   73  32  22 SE7       30.08F
OMAHA          MOSUNNY   64  31  28 S6        30.10F
LINCOLN        SUNNY     66  31  27 SE7       30.10F
FALLS CITY     SUNNY     67  30  25 VRB7      30.09F
LAMONI         SUNNY     63  35  35 VRB6      30.10F
DES MOINES     MOSUNNY   63  30  28 E12G17    30.10F

$$




USA.gov is the U.S. government's official web portal to all federal, state and local government web resources and services.